• In Hungary
  • List of Countries
  • For 7 days
  • Water Temperature
  • Satellite Maps
  • Weather Map
  • News
  • Weather Widgets
  • user-avatar
    Login

    Hourly Weather Kim

    Today, 24 September, Monday

    Time Temperature Precipitation Wind Pressure Humidity
    00:00 +10°C° 0.5 mm 3 mps 744 mmHg 86%
    01:00 +9°C° 0 mm 3 mps 744 mmHg 87%
    02:00 +9°C° 0 mm 3 mps 744 mmHg 88%
    03:00 +8°C° 0 mm 3 mps 744 mmHg 91%
    04:00 +8°C° 0 mm 3 mps 744 mmHg 92%
    05:00 +8°C° 0 mm 3 mps 744 mmHg 93%
    06:00 +7°C° 0 mm 3 mps 744 mmHg 94%
    07:00 +9°C° 0 mm 3 mps 745 mmHg 88%
    08:00 +10°C° 0 mm 2 mps 745 mmHg 83%
    09:00 +12°C° 0 mm 2 mps 745 mmHg 76%
    10:00 +13°C° 0 mm 2 mps 745 mmHg 69%
    11:00 +14°C° 0 mm 3 mps 745 mmHg 62%
    12:00 +16°C° 0 mm 3 mps 745 mmHg 55%
    13:00 +15°C° 0 mm 4 mps 744 mmHg 53%
    14:00 +15°C° 0 mm 4 mps 744 mmHg 50%
    15:00 +17°C° 0 mm 4 mps 743 mmHg 47%
    16:00 +15°C° 0 mm 4 mps 743 mmHg 51%
    17:00 +14°C° 0 mm 4 mps 742 mmHg 54%
    18:00 +14°C° 0 mm 3 mps 742 mmHg 57%
    19:00 +14°C° 0.1 mm 4 mps 741 mmHg 56%
    20:00 +14°C° 0.1 mm 5 mps 741 mmHg 55%
    21:00 +14°C° 0.1 mm 6 mps 740 mmHg 55%
    22:00 +13°C° 0.9 mm 6 mps 740 mmHg 60%
    23:00 +12°C° 0.9 mm 7 mps 739 mmHg 65%

    Tomorrow, 25 September, Tuesday

    Time Temperature Precipitation Wind Pressure Humidity
    00:00 +11°C° 0.9 mm 7 mps 738 mmHg 70%
    01:00 +11°C° 0.6 mm 7 mps 738 mmHg 72%
    02:00 +11°C° 0.6 mm 7 mps 737 mmHg 75%
    03:00 +11°C° 0.6 mm 7 mps 737 mmHg 77%
    04:00 +10°C° 0.5 mm 6 mps 737 mmHg 80%
    05:00 +10°C° 0.5 mm 6 mps 737 mmHg 83%
    06:00 +10°C° 0.5 mm 5 mps 737 mmHg 86%
    07:00 +9°C° 0.5 mm 5 mps 737 mmHg 84%
    08:00 +9°C° 0.5 mm 5 mps 737 mmHg 82%
    09:00 +8°C° 0.5 mm 5 mps 738 mmHg 81%
    10:00 +9°C° 0 mm 6 mps 738 mmHg 77%
    11:00 +9°C° 0 mm 6 mps 739 mmHg 74%
    12:00 +9°C° 0 mm 6 mps 739 mmHg 70%
    13:00 +10°C° 0 mm 6 mps 739 mmHg 69%
    14:00 +10°C° 0 mm 6 mps 740 mmHg 68%
    15:00 +10°C° 0 mm 6 mps 740 mmHg 67%
    16:00 +10°C° 0 mm 6 mps 741 mmHg 69%
    17:00 +9°C° 0 mm 5 mps 741 mmHg 71%
    18:00 +9°C° 0 mm 5 mps 742 mmHg 73%
    19:00 +8°C° 0 mm 5 mps 742 mmHg 75%
    20:00 +7°C° 0 mm 4 mps 743 mmHg 77%
    21:00 +7°C° 0 mm 4 mps 743 mmHg 80%
    22:00 +6°C° 0 mm 4 mps 744 mmHg 81%
    23:00 +6°C° 0 mm 4 mps 744 mmHg 81%

    Day after tomorrow, 26 September, Wednesday

    Time Temperature Precipitation Wind Pressure Humidity
    00:00 +6°C° 0 mm 4 mps 744 mmHg 82%
    01:00 +5°C° 0 mm 4 mps 745 mmHg 82%
    02:00 +5°C° 0 mm 4 mps 745 mmHg 83%
    03:00 +5°C° 0 mm 4 mps 746 mmHg 84%
    04:00 +5°C° 0 mm 4 mps 746 mmHg 85%
    05:00 +5°C° 0 mm 4 mps 747 mmHg 85%
    06:00 +4°C° 0 mm 4 mps 747 mmHg 86%
    07:00 +5°C° 0 mm 4 mps 748 mmHg 82%
    08:00 +6°C° 0 mm 5 mps 749 mmHg 77%
    09:00 +6°C° 0 mm 5 mps 749 mmHg 73%
    10:00 +7°C° 0 mm 5 mps 750 mmHg 70%
    11:00 +7°C° 0 mm 5 mps 750 mmHg 66%
    12:00 +8°C° 0 mm 5 mps 751 mmHg 62%
    13:00 +8°C° 0 mm 5 mps 751 mmHg 60%
    14:00 +9°C° 0 mm 5 mps 751 mmHg 57%
    15:00 +9°C° 0 mm 5 mps 751 mmHg 54%
    16:00 +8°C° 0 mm 4 mps 751 mmHg 57%
    17:00 +8°C° 0 mm 3 mps 751 mmHg 59%
    18:00 +8°C° 0 mm 3 mps 752 mmHg 61%
    19:00 +7°C° 0 mm 3 mps 752 mmHg 62%
    20:00 +5°C° 0 mm 3 mps 752 mmHg 64%
    21:00 +5°C° 0 mm 3 mps 752 mmHg 65%
    22:00 +4°C° 0 mm 3 mps 752 mmHg 66%
    23:00 +4°C° 0 mm 3 mps 752 mmHg 67%

    27 September, Thursday

    Time Temperature Precipitation Wind Pressure Humidity
    00:00 +4°C° 0 mm 3 mps 751 mmHg 68%
    01:00 +4°C° 0 mm 4 mps 751 mmHg 67%
    02:00 +3°C° 0 mm 5 mps 750 mmHg 67%
    03:00 +3°C° 0 mm 5 mps 750 mmHg 66%
    04:00 +3°C° 0 mm 6 mps 749 mmHg 66%
    05:00 +3°C° 0 mm 6 mps 749 mmHg 65%
    06:00 +4°C° 0 mm 7 mps 748 mmHg 64%
    07:00 +4°C° 0.3 mm 7 mps 747 mmHg 65%
    08:00 +4°C° 0.3 mm 8 mps 747 mmHg 66%
    09:00 +5°C° 0.3 mm 9 mps 746 mmHg 67%
    10:00 +5°C° 0.6 mm 9 mps 746 mmHg 69%
    11:00 +5°C° 0.6 mm 9 mps 745 mmHg 71%
    12:00 +5°C° 0.6 mm 10 mps 745 mmHg 74%
    13:00 +5°C° 0.6 mm 9 mps 745 mmHg 76%
    14:00 +5°C° 0.6 mm 9 mps 744 mmHg 79%
    15:00 +5°C° 0.6 mm 8 mps 744 mmHg 81%
    16:00 +6°C° 0.1 mm 8 mps 744 mmHg 82%
    17:00 +6°C° 0.1 mm 8 mps 743 mmHg 83%
    18:00 +6°C° 0.1 mm 7 mps 743 mmHg 84%
    19:00 +6°C° 0.2 mm 7 mps 743 mmHg 85%
    20:00 +6°C° 0.2 mm 7 mps 743 mmHg 86%
    21:00 +7°C° 0.2 mm 6 mps 743 mmHg 87%
    22:00 +8°C° 0.7 mm 6 mps 743 mmHg 88%
    23:00 +8°C° 0.7 mm 6 mps 743 mmHg 89%

    28 September, Friday

    Time Temperature Precipitation Wind Pressure Humidity
    00:00 +8°C° 0.7 mm 5 mps 743 mmHg 90%
    01:00 +8°C° 0.1 mm 5 mps 743 mmHg 91%
    02:00 +8°C° 0.1 mm 4 mps 743 mmHg 92%
    03:00 +8°C° 0.1 mm 4 mps 743 mmHg 93%
    04:00 +9°C° 0.1 mm 3 mps 743 mmHg 94%
    05:00 +9°C° 0.1 mm 3 mps 743 mmHg 94%
    06:00 +9°C° 0.1 mm 3 mps 743 mmHg 95%
    07:00 +10°C° 0.1 mm 3 mps 742 mmHg 93%
    08:00 +10°C° 0.1 mm 4 mps 742 mmHg 91%
    09:00 +11°C° 0.1 mm 4 mps 742 mmHg 90%
    10:00 +12°C° 0.1 mm 5 mps 742 mmHg 85%
    11:00 +13°C° 0.1 mm 6 mps 742 mmHg 81%
    12:00 +14°C° 0.1 mm 7 mps 741 mmHg 76%
    13:00 +14°C° 0 mm 7 mps 741 mmHg 77%
    14:00 +13°C° 0 mm 8 mps 741 mmHg 77%
    15:00 +13°C° 0 mm 8 mps 740 mmHg 77%
    16:00 +13°C° 0 mm 8 mps 740 mmHg 77%
    17:00 +13°C° 0 mm 8 mps 740 mmHg 78%
    18:00 +14°C° 0 mm 7 mps 741 mmHg 78%
    19:00 +12°C° 0.3 mm 7 mps 741 mmHg 80%
    20:00 +13°C° 0.3 mm 6 mps 741 mmHg 82%
    21:00 +11°C° 0.3 mm 6 mps 742 mmHg 84%
    22:00 +10°C° 0.3 mm 5 mps 742 mmHg 85%
    23:00 +11°C° 0.3 mm 4 mps 743 mmHg 85%

    29 September, Saturday

    Time Temperature Precipitation Wind Pressure Humidity
    00:00 +10°C° 0.3 mm 3 mps 743 mmHg 85%
    01:00 +9°C° 0 mm 2 mps 744 mmHg 85%
    02:00 +9°C° 0 mm 2 mps 744 mmHg 86%
    03:00 +8°C° 0 mm 2 mps 744 mmHg 86%
    04:00 +8°C° 0 mm 2 mps 745 mmHg 88%
    05:00 +7°C° 0 mm 2 mps 745 mmHg 89%
    06:00 +6°C° 0 mm 2 mps 746 mmHg 90%
    07:00 +7°C° 0 mm 2 mps 746 mmHg 85%
    08:00 +8°C° 0 mm 2 mps 746 mmHg 79%
    09:00 +8°C° 0 mm 2 mps 747 mmHg 73%
    10:00 +9°C° 0 mm 2 mps 747 mmHg 67%
    11:00 +12°C° 0 mm 2 mps 747 mmHg 62%
    12:00 +13°C° 0 mm 2 mps 747 mmHg 56%
    13:00 +13°C° 0 mm 2 mps 747 mmHg 56%
    14:00 +13°C° 0 mm 2 mps 747 mmHg 56%
    15:00 +14°C° 0 mm 2 mps 746 mmHg 56%
    16:00 +13°C° 0 mm 2 mps 746 mmHg 60%
    17:00 +12°C° 0 mm 2 mps 746 mmHg 64%
    18:00 +12°C° 0 mm 2 mps 746 mmHg 69%
    19:00 +10°C° 0.3 mm 2 mps 746 mmHg 71%
    20:00 +10°C° 0.3 mm 3 mps 746 mmHg 74%
    21:00 +9°C° 0.3 mm 3 mps 746 mmHg 77%
    22:00 +9°C° 1 mm 3 mps 746 mmHg 81%
    23:00 +8°C° 1 mm 3 mps 746 mmHg 84%
    Show more